QPF
0.00 0.00 0.00 0.00 0.00 0.00 0.00 0.00 0.01 0.02 0.02 0.02 0.01 0.02 0.02 0.02 0.01 0.01 0.00 0.00 0.00 0.02 0.04 0.04 0.04 0.04 0.03 0.03 0.02 0.03 0.04 0.05 0.05 0.04 0.04 0.04 0.05 0.04 0.04 0.04 0.05 0.05 0.05 0.05
0.01 0.00 0.00 0.01 0.00 0.00 0.00 0.01 0.02 0.02 0.02 0.02 0.02 0.05 0.04 0.02 0.01 0.01 0.01 0.00 0.01 0.01 0.01 0.02 0.04 0.03 0.04 0.05 0.04 0.05 0.05 0.05 0.05 0.04 0.04 0.05 0.05 0.05 0.03 0.03 0.03 0.03 0.05 0.06
0.01 0.00 0.01 0.01 0.00 0.01 0.01 0.01 0.02 0.02 0.02 0.02 0.02 0.06 0.04 0.03 0.03 0.03 0.02 0.02 0.02 0.01 0.01 0.01 0.03 0.07 0.05 0.04 0.04 0.04 0.05 0.06 0.06 0.05 0.04 0.06 0.05 0.04 0.04 0.04 0.03 0.03 0.03 0.04
0.01 0.02 0.03 0.02 0.01 0.01 0.02 0.03 0.03 0.03 0.03 0.02 0.01 0.01 0.02 0.02 0.02 0.02 0.02 0.01 0.02 0.02 0.01 0.01 0.04 0.10 0.10 0.07 0.06 0.06 0.06 0.06 0.06 0.05 0.05 0.06 0.06 0.06 0.05 0.04 0.03 0.03 0.03 0.03
0.02 0.03 0.05 0.02 0.01 0.02 0.03 0.06 0.04 0.03 0.02 0.01 0.01 0.02 0.02 0.01 0.02 0.02 0.02 0.02 0.02 0.02 0.02 0.02 0.02 0.04 0.09 0.10 0.11 0.11 0.08 0.07 0.07 0.06 0.06 0.06 0.07 0.07 0.07 0.05 0.04 0.04 0.05 0.05
0.04 0.04 0.06 0.04 0.02 0.02 0.04 0.06 0.05 0.02 0.02 0.01 0.01 0.03 0.04 0.02 0.01 0.01 0.02 0.02 0.03 0.03 0.03 0.03 0.02 0.03 0.05 0.08 0.11 0.12 0.11 0.10 0.07 0.07 0.06 0.06 0.06 0.07 0.07 0.07 0.07 0.06 0.05 0.06
0.06 0.06 0.06 0.04 0.01 0.02 0.05 0.06 0.04 0.02 0.02 0.02 0.02 0.03 0.03 0.02 0.02 0.02 0.02 0.03 0.04 0.05 0.05 0.04 0.04 0.04 0.05 0.05 0.08 0.10 0.11 0.09 0.08 0.07 0.06 0.06 0.07 0.09 0.09 0.09 0.08 0.07 0.07 0.06
0.05 0.08 0.08 0.04 0.02 0.04 0.06 0.04 0.02 0.02 0.04 0.03 0.02 0.02 0.02 0.02 0.03 0.03 0.03 0.04 0.05 0.05 0.05 0.05 0.05 0.05 0.04 0.03 0.04 0.06 0.06 0.07 0.09 0.09 0.09 0.09 0.09 0.10 0.12 0.13 0.11 0.09 0.08 0.08
0.05 0.09 0.07 0.05 0.04 0.05 0.05 0.06 0.05 0.04 0.04 0.02 0.01 0.02 0.02 0.03 0.03 0.03 0.04 0.04 0.04 0.05 0.06 0.06 0.05 0.05 0.06 0.06 0.05 0.05 0.05 0.06 0.10 0.12 0.12 0.12 0.11 0.09 0.08 0.11 0.13 0.12 0.09 0.09
0.07 0.08 0.07 0.06 0.04 0.05 0.04 0.03 0.05 0.06 0.04 0.01 0.01 0.02 0.02 0.02 0.03 0.03 0.04 0.04 0.04 0.05 0.05 0.06 0.06 0.06 0.06 0.06 0.05 0.04 0.04 0.06 0.08 0.11 0.10 0.08 0.07 0.07 0.06 0.07 0.08 0.09 0.10 0.10
0.07 0.06 0.05 0.06 0.04 0.04 0.04 0.02 0.02 0.04 0.04 0.01 0.02 0.02 0.02 0.02 0.03 0.03 0.04 0.05 0.05 0.05 0.05 0.07 0.07 0.07 0.07 0.05 0.04 0.04 0.04 0.05 0.07 0.07 0.06 0.06 0.04 0.04 0.04 0.03 0.03 0.04 0.05 0.05
0.08 0.07 0.05 0.04 0.03 0.02 0.04 0.05 0.04 0.03 0.04 0.02 0.02 0.02 0.02 0.01 0.02 0.02 0.03 0.04 0.05 0.07 0.06 0.05 0.06 0.06 0.07 0.06 0.05 0.05 0.05 0.05 0.07 0.05 0.03 0.03 0.03 0.02 0.02 0.01 0.02 0.02 0.02 0.02
0.05 0.06 0.07 0.02 0.02 0.01 0.02 0.04 0.05 0.04 0.03 0.02 0.02 0.02 0.02 0.02 0.02 0.02 0.03 0.04 0.06 0.06 0.07 0.06 0.04 0.04 0.05 0.07 0.06 0.05 0.05 0.06 0.07 0.05 0.02 0.02 0.01 0.01 0.01 0.01 0.02 0.02 0.02 0.02
0.03 0.02 0.04 0.02 0.01 0.01 0.02 0.04 0.04 0.04 0.03 0.02 0.02 0.02 0.02 0.03 0.03 0.03 0.04 0.05 0.06 0.06 0.07 0.08 0.07 0.06 0.06 0.07 0.06 0.05 0.05 0.05 0.06 0.05 0.02 0.01 0.01 0.01 0.01 0.01 0.02 0.02 0.02 0.01
0.03 0.02 0.03 0.02 0.01 0.01 0.02 0.04 0.06 0.04 0.02 0.02 0.02 0.02 0.02 0.03 0.03 0.03 0.03 0.05 0.06 0.07 0.07 0.08 0.08 0.09 0.08 0.07 0.05 0.04 0.04 0.05 0.06 0.07 0.03 0.02 0.02 0.01 0.01 0.01 0.01 0.01 0.02 0.02
0.01 0.01 0.02 0.04 0.02 0.02 0.03 0.05 0.06 0.04 0.03 0.03 0.03 0.03 0.03 0.04 0.04 0.04 0.03 0.04 0.07 0.09 0.08 0.07 0.07 0.07 0.07 0.06 0.04 0.02 0.02 0.03 0.04 0.05 0.03 0.01 0.01 0.01 0.01 0.01 0.01 0.02 0.02 0.03
0.02 0.02 0.03 0.05 0.03 0.02 0.03 0.06 0.07 0.03 0.03 0.04 0.05 0.04 0.04 0.04 0.05 0.05 0.04 0.05 0.07 0.09 0.08 0.07 0.06 0.05 0.04 0.04 0.02 0.01 0.01 0.01 0.03 0.03 0.02 0.01 0.01 0.01 0.01 0.01 0.01 0.02 0.02 0.03
0.01 0.01 0.02 0.04 0.04 0.03 0.03 0.04 0.04 0.02 0.02 0.03 0.04 0.04 0.04 0.05 0.05 0.05 0.05 0.05 0.04 0.06 0.07 0.05 0.04 0.05 0.04 0.02 0.02 0.01 0.00 0.01 0.01 0.02 0.02 0.01 0.01 0.01 0.01 0.01 0.01 0.01 0.01 0.02
0.01 0.02 0.03 0.04 0.04 0.04 0.04 0.04 0.03 0.03 0.03 0.03 0.02 0.03 0.03 0.03 0.03 0.04 0.04 0.04 0.05 0.05 0.06 0.04 0.03 0.03 0.04 0.04 0.02 0.01 0.01 0.01 0.01 0.01 0.02 0.01 0.01 0.01 0.01 0.01 0.01 0.01 0.01 0.02
0.03 0.03 0.05 0.05 0.05 0.06 0.05 0.04 0.04 0.04 0.04 0.04 0.03 0.03 0.03 0.02 0.02 0.03 0.03 0.05 0.07 0.07 0.06 0.03 0.02 0.02 0.03 0.05 0.04 0.02 0.02 0.02 0.01 0.01 0.01 0.01 0.01 0.01 0.01 0.01 0.01 0.01 0.01 0.02
0.06 0.05 0.08 0.08 0.07 0.05 0.03 0.04 0.04 0.06 0.07 0.05 0.04 0.03 0.03 0.03 0.03 0.03 0.04 0.05 0.06 0.06 0.04 0.02 0.01 0.02 0.03 0.04 0.04 0.03 0.02 0.02 0.02 0.02 0.01 0.01 0.01 0.01 0.01 0.01 0.01 0.01 0.01 0.02
0.04 0.07 0.08 0.07 0.05 0.04 0.03 0.04 0.05 0.05 0.06 0.04 0.03 0.03 0.03 0.03 0.02 0.03 0.04 0.05 0.04 0.04 0.02 0.01 0.01 0.02 0.02 0.03 0.04 0.04 0.03 0.03 0.02 0.02 0.02 0.02 0.02 0.01 0.01 0.01 0.02 0.02 0.02 0.02
0.03 0.05 0.05 0.04 0.04 0.05 0.04 0.04 0.04 0.04 0.04 0.03 0.03 0.03 0.03 0.03 0.03 0.04 0.05 0.05 0.04 0.03 0.02 0.01 0.01 0.01 0.02 0.02 0.03 0.03 0.03 0.03 0.02 0.02 0.03 0.02 0.02 0.02 0.01 0.01 0.02 0.02 0.02 0.03
0.03 0.03 0.04 0.05 0.05 0.06 0.06 0.04 0.03 0.02 0.02 0.02 0.02 0.03 0.04 0.04 0.04 0.04 0.05 0.05 0.04 0.03 0.02 0.01 0.01 0.01 0.01 0.01 0.01 0.02 0.03 0.03 0.03 0.03 0.04 0.03 0.02 0.01 0.01 0.01 0.01 0.02 0.02 0.02
0.04 0.04 0.04 0.04 0.06 0.05 0.05 0.04 0.03 0.04 0.03 0.03 0.02 0.02 0.03 0.04 0.04 0.03 0.03 0.03 0.02 0.02 0.02 0.02 0.01 0.01 0.01 0.01 0.01 0.01 0.01 0.02 0.02 0.03 0.04 0.04 0.04 0.03 0.03 0.02 0.01 0.02 0.02 0.03
0.04 0.04 0.04 0.03 0.03 0.03 0.03 0.04 0.04 0.05 0.04 0.03 0.03 0.03 0.03 0.03 0.04 0.03 0.03 0.02 0.02 0.01 0.01 0.01 0.01 0.01 0.01 0.01 0.01 0.02 0.02 0.02 0.02 0.03 0.04 0.06 0.06 0.05 0.04 0.03 0.02 0.02 0.03 0.03
0.03 0.03 0.03 0.02 0.02 0.02 0.03 0.03 0.04 0.04 0.03 0.02 0.02 0.03 0.03 0.02 0.02 0.03 0.03 0.03 0.03 0.02 0.01 0.01 0.00 0.01 0.00 0.00 0.01 0.02 0.01 0.02 0.02 0.02 0.04 0.05 0.07 0.07 0.05 0.05 0.04 0.03 0.02 0.02
MSLP
1012.55 1011.87 1011.25 1010.78 1010.57 1010.65 1011.02 1011.62 1012.38 1013.19 1013.96 1014.59 1015.01 1015.20 1015.18 1014.96 1014.60 1014.17 1013.72 1013.30 1012.93 1012.63 1012.40 1012.20 1012.03 1011.85 1011.67 1011.46 1011.23 1010.98 1010.73 1010.49 1010.27 1010.09 1009.94 1009.84 1009.77 1009.76 1009.78 1009.85 1009.95 1010.09 1010.26 1010.46
1013.41 1012.86 1012.33 1011.93 1011.75 1011.81 1012.12 1012.64 1013.30 1014.00 1014.65 1015.16 1015.48 1015.57 1015.45 1015.16 1014.74 1014.26 1013.77 1013.32 1012.93 1012.62 1012.37 1012.17 1011.99 1011.82 1011.63 1011.43 1011.21 1010.98 1010.76 1010.56 1010.39 1010.26 1010.18 1010.13 1010.12 1010.13 1010.18 1010.24 1010.32 1010.43 1010.56 1010.71
1014.25 1013.86 1013.47 1013.17 1013.03 1013.09 1013.35 1013.77 1014.29 1014.84 1015.34 1015.70 1015.88 1015.87 1015.67 1015.31 1014.86 1014.35 1013.85 1013.38 1012.99 1012.66 1012.38 1012.15 1011.93 1011.71 1011.48 1011.24 1010.99 1010.75 1010.54 1010.37 1010.24 1010.17 1010.15 1010.17 1010.21 1010.26 1010.32 1010.38 1010.44 1010.51 1010.59 1010.69
1015.07 1014.86 1014.63 1014.44 1014.35 1014.40 1014.59 1014.90 1015.27 1015.65 1015.97 1016.17 1016.21 1016.10 1015.82 1015.43 1014.96 1014.46 1013.96 1013.51 1013.10 1012.75 1012.43 1012.14 1011.85 1011.54 1011.23 1010.91 1010.61 1010.33 1010.11 1009.95 1009.86 1009.84 1009.87 1009.94 1010.03 1010.11 1010.18 1010.23 1010.26 1010.29 1010.31 1010.35
1015.90 1015.84 1015.74 1015.64 1015.60 1015.63 1015.74 1015.92 1016.14 1016.33 1016.47 1016.52 1016.43 1016.22 1015.90 1015.49 1015.02 1014.54 1014.07 1013.63 1013.22 1012.83 1012.46 1012.08 1011.69 1011.29 1010.87 1010.46 1010.08 1009.76 1009.51 1009.36 1009.29 1009.31 1009.39 1009.51 1009.63 1009.73 1009.81 1009.84 1009.84 1009.82 1009.79 1009.77
1016.71 1016.76 1016.75 1016.72 1016.68 1016.68 1016.70 1016.75 1016.80 1016.83 1016.80 1016.69 1016.49 1016.20 1015.84 1015.42 1014.97 1014.51 1014.07 1013.63 1013.21 1012.79 1012.36 1011.90 1011.41 1010.90 1010.38 1009.89 1009.44 1009.08 1008.81 1008.66 1008.62 1008.67 1008.78 1008.93 1009.08 1009.20 1009.27 1009.29 1009.26 1009.20 1009.13 1009.08
1017.48 1017.58 1017.61 1017.59 1017.54 1017.47 1017.40 1017.32 1017.22 1017.08 1016.90 1016.66 1016.36 1016.00 1015.60 1015.17 1014.74 1014.30 1013.87 1013.44 1013.00 1012.54 1012.05 1011.51 1010.94 1010.35 1009.76 1009.20 1008.72 1008.33 1008.06 1007.92 1007.90 1007.98 1008.12 1008.29 1008.45 1008.58 1008.64 1008.65 1008.61 1008.53 1008.45 1008.39
1018.14 1018.24 1018.27 1018.22 1018.12 1017.98 1017.80 1017.59 1017.36 1017.08 1016.77 1016.42 1016.03 1015.61 1015.18 1014.74 1014.30 1013.86 1013.43 1013.00 1012.54 1012.04 1011.50 1010.91 1010.29 1009.65 1009.02 1008.44 1007.94 1007.56 1007.31 1007.19 1007.19 1007.29 1007.45 1007.64 1007.80 1007.93 1007.99 1008.00 1007.96 1007.89 1007.82 1007.79
1018.64 1018.71 1018.68 1018.58 1018.41 1018.19 1017.91 1017.60 1017.25 1016.86 1016.44 1015.99 1015.53 1015.06 1014.59 1014.13 1013.67 1013.23 1012.79 1012.33 1011.85 1011.32 1010.75 1010.13 1009.49 1008.83 1008.21 1007.64 1007.17 1006.81 1006.59 1006.51 1006.53 1006.65 1006.81 1006.99 1007.15 1007.27 1007.33 1007.35 1007.32 1007.29 1007.27 1007.29
1018.95 1018.95 1018.86 1018.69 1018.44 1018.13 1017.78 1017.37 1016.93 1016.46 1015.96 1015.45 1014.93 1014.41 1013.91 1013.42 1012.94 1012.48 1012.02 1011.54 1011.03 1010.49 1009.90 1009.29 1008.65 1008.02 1007.42 1006.90 1006.47 1006.16 1005.97 1005.91 1005.94 1006.05 1006.21 1006.36 1006.50 1006.60 1006.66 1006.68 1006.69 1006.70 1006.74 1006.84
1019.06 1018.97 1018.81 1018.56 1018.25 1017.87 1017.45 1016.98 1016.48 1015.95 1015.41 1014.86 1014.30 1013.76 1013.23 1012.72 1012.23 1011.74 1011.26 1010.76 1010.24 1009.70 1009.12 1008.52 1007.91 1007.32 1006.77 1006.30 1005.92 1005.64 1005.48 1005.42 1005.45 1005.53 1005.64 1005.75 1005.85 1005.92 1005.96 1005.98 1006.01 1006.07 1006.17 1006.34
1018.98 1018.82 1018.58 1018.27 1017.89 1017.47 1017.01 1016.51 1015.98 1015.43 1014.87 1014.31 1013.75 1013.21 1012.67 1012.16 1011.66 1011.17 1010.67 1010.17 1009.65 1009.11 1008.55 1007.97 1007.40 1006.86 1006.36 1005.93 1005.58 1005.32 1005.16 1005.08 1005.07 1005.09 1005.14 1005.18 1005.21 1005.22 1005.23 1005.24 1005.28 1005.36 1005.50 1005.72
1018.77 1018.54 1018.24 1017.88 1017.47 1017.02 1016.53 1016.03 1015.50 1014.96 1014.42 1013.88 1013.35 1012.82 1012.31 1011.81 1011.32 1010.84 1010.36 1009.86 1009.35 1008.83 1008.29 1007.75 1007.21 1006.70 1006.23 1005.82 1005.49 1005.23 1005.04 1004.91 1004.83 1004.78 1004.73 1004.69 1004.64 1004.58 1004.53 1004.50 1004.52 1004.60 1004.75 1004.97
1018.50 1018.22 1017.87 1017.47 1017.04 1016.58 1016.09 1015.60 1015.10 1014.59 1014.09 1013.60 1013.11 1012.64 1012.17 1011.72 1011.26 1010.81 1010.36 1009.89 1009.40 1008.90 1008.38 1007.86 1007.34 1006.85 1006.39 1005.99 1005.64 1005.34 1005.11 1004.92 1004.76 1004.62 1004.49 1004.35 1004.21 1004.07 1003.95 1003.87 1003.84 1003.87 1003.99 1004.17
1018.23 1017.91 1017.53 1017.11 1016.66 1016.20 1015.73 1015.26 1014.80 1014.34 1013.90 1013.46 1013.04 1012.64 1012.24 1011.85 1011.45 1011.05 1010.64 1010.20 1009.74 1009.26 1008.76 1008.26 1007.75 1007.26 1006.79 1006.37 1005.99 1005.65 1005.36 1005.11 1004.88 1004.66 1004.45 1004.23 1004.01 1003.80 1003.61 1003.45 1003.35 1003.31 1003.35 1003.46
1018.02 1017.66 1017.26 1016.83 1016.37 1015.92 1015.46 1015.02 1014.60 1014.19 1013.81 1013.45 1013.10 1012.77 1012.45 1012.13 1011.80 1011.46 1011.09 1010.70 1010.27 1009.81 1009.32 1008.82 1008.31 1007.81 1007.32 1006.87 1006.46 1006.09 1005.76 1005.46 1005.18 1004.91 1004.64 1004.38 1004.11 1003.84 1003.59 1003.36 1003.18 1003.05 1002.99 1002.98
1017.88 1017.50 1017.08 1016.64 1016.18 1015.73 1015.29 1014.87 1014.48 1014.12 1013.80 1013.50 1013.22 1012.96 1012.71 1012.46 1012.20 1011.92 1011.60 1011.24 1010.84 1010.39 1009.91 1009.41 1008.89 1008.38 1007.88 1007.41 1006.98 1006.59 1006.24 1005.92 1005.63 1005.35 1005.07 1004.79 1004.50 1004.21 1003.92 1003.64 1003.38 1003.16 1002.98 1002.85
1017.81 1017.42 1016.99 1016.54 1016.07 1015.62 1015.19 1014.78 1014.42 1014.09 1013.80 1013.55 1013.33 1013.13 1012.93 1012.74 1012.53 1012.29 1012.01 1011.68 1011.31 1010.88 1010.40 1009.90 1009.38 1008.86 1008.35 1007.88 1007.45 1007.06 1006.73 1006.43 1006.16 1005.91 1005.67 1005.41 1005.14 1004.86 1004.56 1004.24 1003.93 1003.63 1003.36 1003.11
1017.80 1017.39 1016.95 1016.49 1016.02 1015.56 1015.13 1014.73 1014.37 1014.05 1013.79 1013.56 1013.36 1013.20 1013.04 1012.88 1012.70 1012.50 1012.24 1011.94 1011.58 1011.16 1010.70 1010.20 1009.69 1009.17 1008.68 1008.22 1007.81 1007.46 1007.16 1006.91 1006.70 1006.51 1006.33 1006.13 1005.92 1005.67 1005.38 1005.07 1004.73 1004.38 1004.03 1003.69
1017.79 1017.37 1016.93 1016.46 1015.98 1015.52 1015.08 1014.68 1014.31 1013.99 1013.72 1013.49 1013.31 1013.15 1013.00 1012.86 1012.69 1012.50 1012.27 1011.98 1011.63 1011.24 1010.79 1010.31 1009.82 1009.32 1008.86 1008.43 1008.06 1007.75 1007.51 1007.32 1007.17 1007.05 1006.94 1006.82 1006.66 1006.47 1006.23 1005.94 1005.60 1005.23 1004.85 1004.46
1017.75 1017.33 1016.88 1016.42 1015.94 1015.47 1015.03 1014.61 1014.23 1013.90 1013.61 1013.37 1013.17 1012.99 1012.84 1012.69 1012.53 1012.34 1012.12 1011.84 1011.52 1011.14 1010.72 1010.28 1009.81 1009.36 1008.92 1008.54 1008.21 1007.95 1007.75 1007.61 1007.52 1007.47 1007.42 1007.36 1007.27 1007.13 1006.94 1006.69 1006.38 1006.04 1005.66 1005.27
1017.65 1017.25 1016.81 1016.35 1015.88 1015.41 1014.95 1014.53 1014.13 1013.78 1013.47 1013.21 1012.98 1012.78 1012.61 1012.45 1012.28 1012.09 1011.87 1011.62 1011.32 1010.97 1010.59 1010.18 1009.76 1009.35 1008.96 1008.61 1008.31 1008.08 1007.92 1007.81 1007.76 1007.73 1007.72 1007.71 1007.66 1007.57 1007.43 1007.23 1006.98 1006.68 1006.34 1005.99
1017.51 1017.11 1016.69 1016.24 1015.79 1015.33 1014.88 1014.45 1014.04 1013.67 1013.34 1013.05 1012.80 1012.58 1012.38 1012.20 1012.02 1011.83 1011.63 1011.39 1011.12 1010.82 1010.48 1010.12 1009.75 1009.38 1009.03 1008.72 1008.44 1008.23 1008.07 1007.97 1007.91 1007.89 1007.88 1007.88 1007.86 1007.81 1007.71 1007.57 1007.38 1007.14 1006.88 1006.60
1017.32 1016.94 1016.54 1016.12 1015.69 1015.25 1014.81 1014.39 1013.98 1013.61 1013.26 1012.95 1012.67 1012.43 1012.21 1012.01 1011.83 1011.65 1011.46 1011.25 1011.01 1010.76 1010.47 1010.17 1009.85 1009.52 1009.21 1008.91 1008.65 1008.43 1008.26 1008.14 1008.05 1008.01 1007.98 1007.97 1007.95 1007.92 1007.86 1007.77 1007.65 1007.50 1007.32 1007.14
1017.11 1016.76 1016.39 1016.00 1015.60 1015.19 1014.77 1014.37 1013.98 1013.60 1013.25 1012.93 1012.64 1012.38 1012.15 1011.94 1011.76 1011.58 1011.40 1011.22 1011.03 1010.81 1010.58 1010.33 1010.06 1009.78 1009.50 1009.22 1008.97 1008.74 1008.54 1008.39 1008.27 1008.18 1008.13 1008.09 1008.07 1008.05 1008.03 1007.99 1007.94 1007.87 1007.78 1007.69
1016.90 1016.59 1016.25 1015.90 1015.53 1015.15 1014.78 1014.40 1014.03 1013.67 1013.33 1013.01 1012.72 1012.45 1012.21 1012.00 1011.81 1011.63 1011.47 1011.31 1011.14 1010.97 1010.78 1010.58 1010.36 1010.12 1009.87 1009.62 1009.38 1009.15 1008.94 1008.76 1008.61 1008.50 1008.42 1008.37 1008.34 1008.34 1008.35 1008.36 1008.37 1008.38 1008.38 1008.36
1016.73 1016.44 1016.13 1015.81 1015.49 1015.16 1014.82 1014.48 1014.14 1013.81 1013.49 1013.18 1012.89 1012.62 1012.37 1012.15 1011.95 1011.78 1011.61 1011.46 1011.32 1011.18 1011.02 1010.86 1010.68 1010.49 1010.28 1010.06 1009.85 1009.63 1009.43 1009.26 1009.11 1008.99 1008.91 1008.87 1008.86 1008.88 1008.92 1008.98 1009.04 1009.11 1009.17 1009.21
Thickness
5724 5733 5735 5734 5738 5747 5746 5744 5735 5739 5740 5743 5747 5747 5748 5748 5749 5750 5750 5750 5749 5745 5743 5741 5739 5738 5738 5739 5738 5737 5734 5731 5728 5727 5726 5724 5722 5720 5719 5717 5716 5715 5713 5711
5708 5722 5726 5725 5733 5738 5741 5741 5738 5738 5737 5749 5749 5743 5742 5742 5742 5740 5741 5741 5741 5739 5736 5732 5731 5730 5729 5730 5729 5728 5726 5723 5721 5720 5718 5716 5714 5713 5711 5710 5709 5708 5706 5704
5692 5711 5714 5709 5725 5727 5728 5734 5732 5724 5729 5738 5734 5731 5731 5734 5735 5732 5732 5732 5731 5730 5728 5726 5724 5723 5723 5720 5721 5719 5718 5716 5714 5712 5710 5708 5707 5704 5703 5702 5701 5700 5699 5697
5687 5691 5677 5708 5731 5728 5722 5723 5726 5725 5727 5728 5726 5726 5729 5731 5728 5726 5725 5723 5722 5721 5720 5719 5718 5716 5714 5714 5712 5711 5710 5708 5706 5705 5703 5701 5699 5697 5695 5694 5693 5692 5692 5690
5677 5676 5682 5704 5716 5718 5710 5706 5719 5719 5719 5721 5722 5719 5715 5720 5720 5718 5718 5716 5714 5714 5713 5711 5709 5708 5707 5706 5705 5703 5701 5699 5698 5698 5696 5694 5691 5689 5688 5687 5686 5685 5685 5684
5669 5664 5664 5682 5706 5715 5709 5693 5710 5712 5709 5709 5710 5698 5698 5708 5710 5709 5708 5707 5707 5706 5704 5702 5701 5700 5698 5697 5696 5694 5693 5692 5691 5691 5689 5687 5685 5683 5682 5680 5679 5679 5679 5679
5662 5660 5667 5683 5697 5701 5679 5678 5700 5702 5702 5701 5695 5695 5697 5701 5699 5698 5698 5699 5699 5697 5694 5693 5693 5692 5689 5688 5686 5686 5686 5685 5684 5683 5681 5680 5678 5676 5674 5673 5673 5672 5672 5672
5657 5651 5652 5676 5682 5674 5674 5687 5691 5691 5692 5692 5691 5691 5691 5691 5690 5688 5687 5688 5688 5686 5684 5685 5685 5684 5681 5679 5679 5679 5678 5677 5675 5674 5673 5672 5670 5668 5667 5666 5664 5663 5663 5663
5656 5655 5664 5668 5669 5675 5678 5679 5680 5680 5682 5685 5683 5681 5681 5681 5681 5680 5680 5679 5679 5678 5677 5677 5677 5676 5673 5673 5673 5671 5669 5668 5667 5665 5664 5663 5662 5660 5659 5658 5657 5656 5656 5655
5652 5657 5660 5662 5665 5670 5672 5672 5674 5674 5674 5676 5674 5673 5672 5673 5672 5672 5672 5671 5671 5670 5668 5668 5669 5669 5668 5668 5666 5664 5661 5660 5659 5657 5655 5654 5654 5653 5652 5650 5650 5649 5648 5647
5642 5648 5653 5657 5659 5661 5665 5668 5668 5666 5668 5669 5667 5665 5665 5664 5663 5663 5663 5663 5662 5660 5659 5659 5661 5661 5662 5661 5659 5656 5654 5652 5651 5650 5648 5646 5644 5643 5643 5640 5641 5640 5640 5640
5632 5639 5639 5644 5653 5657 5657 5658 5659 5659 5661 5663 5662 5659 5659 5658 5657 5656 5655 5655 5653 5652 5652 5651 5652 5652 5653 5653 5652 5648 5646 5645 5644 5643 5642 5639 5637 5635 5632 5632 5631 5631 5630 5629
5635 5639 5640 5643 5647 5650 5650 5652 5654 5654 5654 5653 5654 5653 5652 5650 5650 5649 5647 5646 5645 5644 5644 5644 5644 5644 5645 5644 5643 5641 5639 5638 5638 5637 5636 5634 5633 5631 5627 5623 5622 5621 5622 5621
5634 5633 5631 5634 5637 5641 5644 5646 5648 5648 5648 5647 5646 5646 5645 5643 5642 5640 5639 5639 5638 5638 5637 5636 5636 5636 5637 5637 5635 5634 5633 5632 5631 5630 5630 5629 5629 5627 5625 5623 5619 5617 5614 5613
5627 5628 5628 5632 5634 5635 5637 5638 5636 5637 5638 5639 5639 5638 5637 5635 5633 5632 5632 5632 5630 5629 5629 5628 5628 5628 5629 5629 5628 5627 5627 5626 5625 5625 5625 5624 5624 5623 5621 5619 5617 5614 5612 5608
5621 5623 5624 5624 5624 5626 5628 5629 5627 5628 5629 5629 5629 5629 5629 5627 5625 5624 5623 5623 5620 5620 5620 5620 5619 5620 5621 5621 5620 5620 5619 5618 5618 5619 5620 5618 5618 5617 5615 5613 5611 5608 5606 5604
5611 5610 5611 5611 5614 5618 5620 5621 5621 5622 5623 5621 5621 5621 5620 5619 5616 5615 5614 5613 5612 5612 5612 5612 5612 5613 5613 5613 5613 5614 5614 5613 5610 5612 5612 5612 5611 5611 5609 5607 5605 5602 5600 5598
5609 5608 5608 5608 5609 5611 5614 5615 5616 5617 5616 5616 5615 5613 5611 5609 5607 5606 5606 5605 5605 5605 5605 5605 5605 5605 5605 5606 5606 5608 5607 5606 5605 5605 5605 5604 5603 5603 5602 5601 5598 5596 5595 5592
5606 5605 5604 5605 5605 5606 5607 5608 5609 5610 5610 5608 5606 5604 5603 5602 5601 5600 5600 5599 5598 5597 5597 5598 5597 5598 5598 5598 5598 5600 5601 5601 5599 5598 5597 5594 5594 5595 5595 5594 5592 5591 5590 5587
5599 5600 5601 5601 5602 5602 5602 5603 5603 5602 5602 5601 5599 5597 5595 5595 5594 5593 5593 5592 5591 5592 5592 5591 5591 5592 5592 5592 5590 5595 5595 5595 5594 5592 5591 5589 5588 5588 5588 5587 5586 5584 5583 5580
5593 5594 5595 5596 5596 5597 5597 5597 5596 5594 5593 5593 5591 5589 5588 5588 5588 5587 5587 5586 5586 5587 5586 5584 5585 5585 5586 5584 5584 5588 5590 5589 5588 5586 5584 5583 5582 5581 5580 5579 5577 5576 5575 5573
5587 5588 5589 5590 5589 5589 5591 5590 5588 5587 5586 5584 5584 5584 5582 5581 5581 5581 5581 5581 5582 5580 5580 5581 5581 5579 5579 5577 5581 5583 5583 5582 5581 5580 5578 5576 5575 5574 5573 5572 5571 5569 5568 5566
5583 5582 5582 5582 5582 5582 5583 5583 5582 5580 5579 5578 5578 5577 5576 5575 5575 5574 5573 5575 5576 5573 5575 5575 5573 5571 5570 5573 5576 5577 5577 5576 5575 5574 5573 5572 5571 5569 5568 5567 5565 5564 5562 5559
5577 5576 5576 5576 5577 5576 5574 5575 5576 5575 5574 5573 5572 5572 5571 5570 5570 5571 5571 5569 5570 5568 5570 5567 5566 5565 5564 5568 5569 5570 5570 5570 5570 5570 5569 5568 5567 5566 5564 5563 5560 5558 5556 5554
5572 5571 5571 5570 5570 5570 5569 5569 5568 5567 5567 5567 5566 5566 5567 5567 5566 5567 5567 5566 5564 5563 5564 5561 5560 5559 5561 5563 5564 5565 5565 5565 5565 5564 5565 5563 5562 5560 5559 5557 5555 5552 5549 5547
5566 5566 5566 5565 5565 5564 5564 5564 5563 5562 5561 5561 5560 5561 5562 5563 5564 5564 5563 5562 5561 5559 5559 5558 5557 5555 5558 5559 5560 5561 5560 5559 5559 5559 5558 5557 5556 5554 5552 5550 5547 5545 5542 5539
5562 5562 5561 5562 5562 5562 5561 5560 5558 5558 5558 5557 5557 5558 5559 5560 5560 5560 5559 5557 5556 5556 5556 5556 5556 5555 5556 5556 5556 5555 5555 5554 5553 5551 5551 5550 5548 5547 5545 5543 5541 5538 5535 5533